[[{"header":{"parameterUnit":"m.s-1","parameterCategory":1,"la1":30.2991,"la2":30.254,"lo1":-89.0895,"lo2":-89.0444,"dy":0.0017,"dx":0.0017,"nx":28,"ny":28,"refTime":"2024-12-18T03:00:00:Z","depth":0,"parameterNumber":2,"parameterNumberName":"U-component_of_WINDS"},"data":[0,0,0,0,0,0,0,0,0,0,0,0,0,0,0,0,0,0,0,0,0,0,0,0,0,0,0,0,0,0,0,0,0,0,0,0,0,0,0,0,0,0,0,0,0,0,0,0,0,0,0,0,0,0,0,0,0,0,-1.1766,-1.1766,0,-1.1768,-1.1768,-1.1768,-1.1724,-1.1723,-1.1722,-1.1721,-1.1723,-1.1724,-1.1725,0,0,0,0,0,0,0,0,0,0,0,0,0,-1.1727,-1.1728,-1.1766,-1.1766,-1.1766,-1.1768,-1.1768,-1.1768,-1.1724,-1.1723,-1.1722,-1.172,-1.1723,-1.1724,-1.1725,0,0,0,0,0,0,0,0,0,0,0,0,0,-1.1738,-1.1729,-1.1766,-1.1745,-1.1743,-1.1768,-1.1768,-1.1768,-1.1725,-1.1723,-1.1721,-1.172,-1.1722,-1.1724,-1.1726,-1.1771,0,0,-1.1731,-1.1732,0,0,0,0,0,0,0,0,-1.1738,-1.174,-1.1748,-1.1746,-1.1744,-1.1744,-1.1755,-1.1769,-1.1725,-1.1732,-1.1721,-1.1719,-1.1731,-1.1732,-1.1736,-1.1771,-1.1771,-1.1731,-1.1732,-1.1733,-1.1733,0,0,0,0,0,0,0,-1.1737,-1.1739,-1.1767,-1.1748,-1.1746,-1.1736,-1.1735,-1.1757,-1.1741,-1.1731,-1.1728,-1.1729,-1.173,-1.1735,-1.1736,-1.1771,-1.1731,-1.1732,-1.1733,-1.1734,-1.1844,-1.1846,0,0,0,0,0,0,-1.1739,-1.1739,-1.1767,-1.1767,-1.1737,-1.1738,-1.1737,-1.1746,-1.1741,-1.1739,-1.173,-1.1727,-1.1733,-1.1734,-1.1736,-1.1789,-1.1733,-1.1734,-1.1735,-1.1842,-1.1845,-1.1847,0,0,0,0,0,0,-1.1738,-1.1742,-1.1767,-1.1752,-1.1754,-1.174,-1.175,-1.1747,-1.1751,-1.174,-1.1737,-1.1738,-1.1731,-1.1734,-1.1763,-1.1789,-1.1735,-1.1737,-1.184,-1.1843,-1.1846,-1.1896,0,0,0,0,0,0,-1.1737,-1.1742,-1.1758,-1.1753,-1.1755,-1.1793,-1.1752,-1.1748,-1.1754,-1.175,-1.1747,-1.1744,-1.173,-1.176,-1.1765,-1.179,-1.1738,-1.1838,-1.1841,-1.1845,-1.1892,-1.1901,-1.1908,0,0,0,0,0,-1.1736,-1.1773,-1.176,-1.1763,-1.1776,-1.1795,-1.1796,-1.1779,-1.1757,-1.1774,-1.1767,-1.1745,-1.1786,-1.1764,-1.1768,-1.1795,-1.1836,-1.184,-1.1845,-1.1889,-1.1899,-1.1908,0,0,0,0,0,0,-1.1782,-1.1771,-1.1757,-1.1792,-1.1795,-1.1787,-1.1808,-1.179,-1.1799,-1.1794,-1.1773,-1.1772,-1.1805,-1.1803,-1.1779,-1.1839,-1.1807,-1.1812,-1.1839,-1.1849,-1.1856,-1.1856,-1.1739,0,0,0,0,0,-1.1796,-1.1812,-1.1802,-1.1834,-1.1836,-1.1822,-1.183,-1.1816,-1.1818,-1.1819,-1.1814,-1.1816,-1.183,-1.1839,-1.1851,-1.1892,-1.1891,-1.1912,-1.192,-1.1927,-1.1931,-1.1954,-1.1964,-1.1861,-1.1861,-1.1861,0,0,-1.1825,-1.1822,-1.1833,-1.1843,-1.1844,-1.1861,-1.1823,-1.1843,-1.1856,-1.1822,-1.1849,-1.1846,-1.1847,-1.1883,-1.1898,-1.1882,-1.196,-1.1932,-1.1937,-1.1939,-1.1959,-1.1969,-1.1978,-1.1864,-1.1863,-1.1863,0,0,-1.1888,-1.1887,-1.1914,-1.1915,-1.1916,-1.1906,-1.1913,-1.1909,-1.1905,-1.1932,-1.1907,-1.1923,-1.1946,-1.1949,-1.1953,-1.2018,-1.1998,-1.2023,-1.2063,-1.2085,-1.2093,-1.21,-1.2124,-1.2133,-1.2027,-1.2028,-1.2028,0,-1.1924,-1.1949,-1.193,-1.1952,-1.1958,-1.1928,-1.1956,-1.1958,-1.1963,-1.1968,-1.1949,-1.1979,-1.1978,-1.2014,-1.203,-1.2034,-1.2042,-1.2023,-1.2093,-1.21,-1.2107,-1.2129,-1.2138,-1.203,-1.203,-1.203,-1.203,0,-1.1994,-1.2012,-1.2034,-1.204,-1.2048,-1.2073,-1.2058,-1.2069,-1.2055,-1.2048,-1.2077,-1.2074,-1.2086,-1.2093,-1.208,-1.2128,-1.2118,-1.2097,-1.2064,-1.212,-1.214,-1.2149,-1.2035,-1.2034,-1.2033,-1.2032,0,0,-1.2085,-1.208,-1.2089,-1.2092,-1.2091,-1.2104,-1.2128,-1.2139,-1.2149,-1.2154,-1.2174,-1.2195,-1.2176,-1.2181,-1.2168,-1.2188,-1.224,-1.2164,-1.2164,-1.2179,-1.2294,-1.231,-1.232,-1.2227,-1.2229,-1.223,-1.2294,0,-1.2146,-1.2186,-1.217,-1.2212,-1.2229,-1.2201,-1.2222,-1.2224,-1.2219,-1.2232,-1.2226,-1.2242,-1.2215,-1.2218,-1.2236,-1.223,-1.2263,-1.2225,-1.2246,-1.2247,-1.2247,-1.2331,-1.2348,-1.2408,-1.2302,-1.2303,-1.2304,0,-1.2222,-1.223,-1.2274,-1.2271,-1.2278,-1.2297,-1.2306,-1.2319,-1.2322,-1.2317,-1.2323,-1.2306,-1.233,-1.2298,-1.2331,-1.2305,-1.2313,-1.2312,-1.2314,-1.2315,-1.2279,-1.2335,-1.2427,-1.2436,-1.2317,-1.2316,-1.2315,0,-1.2285,-1.2306,-1.2335,-1.2339,-1.2336,-1.235,-1.235,-1.2351,-1.2359,-1.2367,-1.2373,-1.2384,-1.239,-1.2399,-1.2386,-1.2364,-1.2422,-1.2388,-1.2418,-1.2419,-1.2431,-1.2431,-1.2526,-1.2436,-1.2436,-1.2436,-1.2436,0,-1.2354,-1.2382,-1.2364,-1.2381,-1.2412,-1.2394,-1.2425,-1.2422,-1.2423,-1.244,-1.2417,-1.2434,-1.2416,-1.2431,-1.2421,-1.245,-1.2453,-1.245,-1.2447,-1.2452,-1.2453,-1.2457,-1.2452,-1.2439,-1.2438,-1.2438,-1.2437,0,-1.2429,-1.2417,-1.2447,-1.2443,-1.2443,-1.2466,-1.2462,-1.2479,-1.2472,-1.2494,-1.2498,-1.2488,-1.2505,-1.2492,-1.2509,-1.2502,-1.2541,-1.2532,-1.254,-1.2538,-1.2569,-1.2567,-1.2671,-1.2684,-1.2585,-1.2586,-1.2587,0,-1.2474,-1.2495,-1.2493,-1.2503,-1.2505,-1.2521,-1.2529,-1.2513,-1.2522,-1.2527,-1.2544,-1.2559,-1.257,-1.2598,-1.2592,-1.2605,-1.2597,-1.2632,-1.2598,-1.2603,-1.2598,-1.2597,-1.2599,-1.2639,-1.264,-1.2641,-1.2642,0,-1.2556,-1.255,-1.2562,-1.2574,-1.2584,-1.2592,-1.2598,-1.2608,-1.2591,-1.2604,-1.2621,-1.2629,-1.2647,-1.2662,-1.2673,-1.2674,-1.2656,-1.2653,-1.2661,-1.2666,-1.267,-1.2669,-1.2559,-1.265,-1.265,-1.2649,-1.2649,-1.2648,-1.2618,-1.2635,-1.2637,-1.2652,-1.2655,-1.2662,-1.2678,-1.2673,-1.2687,-1.27,-1.269,-1.271,-1.2713,-1.2726,-1.2729,-1.2745,-1.2731,-1.2742,-1.2745,-1.2748,-1.2752,-1.2668,-1.2747,-1.2747,-1.2747,-1.2746,-1.2746,0,-1.2699,-1.2699,-1.2713,-1.2723,-1.2735,-1.2717,-1.2723,-1.2735,-1.2753,-1.2758,-1.2769,-1.279,-1.2805,-1.28,-1.2814,-1.2828,-1.282,-1.2832,-1.2831,-1.2832,-1.2764,-1.2756,-1.2839,-1.2839,-1.2839,-1.2839,-1.2839,-1.2839,-1.2743,-1.2772,-1.2766,-1.2797,-1.2796,-1.2816,-1.2822,-1.2828,-1.2831,-1.2855,-1.2868,-1.2865,-1.2866,-1.288,-1.2893,-1.2892,-1.2898,-1.2913,-1.2909,-1.2846,-1.2836,-1.2828,-1.282,-1.2915,-1.2915,-1.2975,-1.2975,-1.2976]},{"header":{"parameterUnit":"m.s-1","parameterCategory":1,"la1":30.2991,"la2":30.254,"lo1":-89.0895,"lo2":-89.0444,"dy":0.0017,"dx":0.0017,"nx":28,"ny":28,"refTime":"2024-12-18T03:00:00:Z","depth":0,"parameterNumber":3,"parameterNumberName":"V-component_of_WINDS"},"data":[0,0,0,0,0,0,0,0,0,0,0,0,0,0,0,0,0,0,0,0,0,0,0,0,0,0,0,0,0,0,0,0,0,0,0,0,0,0,0,0,0,0,0,0,0,0,0,0,0,0,0,0,0,0,0,0,0,0,0.6889,0.6889,0,0.6866,0.6865,0.6865,0.6866,0.6866,0.6866,0.6867,0.684,0.6839,0.6838,0,0,0,0,0,0,0,0,0,0,0,0,0,0.6932,0.6931,0.6889,0.6889,0.6888,0.6866,0.6865,0.6865,0.6866,0.6866,0.6866,0.6867,0.684,0.6839,0.6838,0,0,0,0,0,0,0,0,0,0,0,0,0,0.6911,0.6931,0.6889,0.6886,0.6886,0.6866,0.6865,0.6865,0.6865,0.6866,0.6866,0.6867,0.684,0.6839,0.6837,0.6818,0,0,0.6833,0.6832,0,0,0,0,0,0,0,0,0.6913,0.691,0.6887,0.6886,0.6886,0.6869,0.6871,0.6849,0.6865,0.6873,0.6867,0.6867,0.6849,0.6847,0.6841,0.6817,0.6816,0.6833,0.6832,0.6831,0.6831,0,0,0,0,0,0,0,0.6914,0.6911,0.688,0.6886,0.6886,0.6885,0.6883,0.6867,0.6858,0.6872,0.6872,0.687,0.6849,0.6843,0.6841,0.6816,0.6833,0.6831,0.683,0.683,0.6775,0.6775,0,0,0,0,0,0,0.6916,0.6912,0.688,0.6879,0.6901,0.6884,0.6881,0.6874,0.6859,0.6857,0.6869,0.687,0.6845,0.6842,0.684,0.6817,0.6831,0.683,0.6829,0.6776,0.6775,0.6775,0,0,0,0,0,0,0.6917,0.6914,0.6881,0.6896,0.6891,0.6883,0.6874,0.6873,0.6867,0.6856,0.6855,0.6865,0.6845,0.6842,0.6824,0.6816,0.6829,0.6828,0.6777,0.6776,0.6775,0.677,0,0,0,0,0,0,0.6919,0.6914,0.6907,0.6895,0.6891,0.6867,0.6874,0.6872,0.6865,0.6865,0.6852,0.685,0.6845,0.6826,0.6823,0.6814,0.6826,0.6777,0.6776,0.6775,0.6771,0.6769,0.6768,0,0,0,0,0,0.692,0.6906,0.6907,0.6903,0.6882,0.6866,0.6863,0.6859,0.6864,0.6857,0.685,0.685,0.6817,0.6825,0.682,0.6811,0.6778,0.6776,0.6775,0.6772,0.677,0.6768,0,0,0,0,0,0,0.6915,0.6904,0.6905,0.6887,0.6878,0.6866,0.6857,0.6857,0.6846,0.6847,0.6841,0.6838,0.6821,0.6814,0.6822,0.6792,0.6798,0.6796,0.6797,0.6795,0.6793,0.6795,0.6825,0,0,0,0,0,0.6913,0.6901,0.6892,0.6877,0.6872,0.6866,0.6858,0.6856,0.6846,0.6842,0.6834,0.6824,0.6811,0.6803,0.679,0.6771,0.6767,0.6762,0.676,0.6759,0.6757,0.6747,0.6744,0.6771,0.6771,0.6771,0,0,0.6906,0.6898,0.6891,0.6876,0.6868,0.6857,0.6862,0.6849,0.684,0.684,0.6823,0.6817,0.6805,0.6786,0.6777,0.678,0.6749,0.6758,0.6757,0.6755,0.6745,0.6743,0.674,0.677,0.677,0.677,0,0,0.6888,0.6881,0.6868,0.6861,0.685,0.6846,0.6843,0.6832,0.6828,0.6811,0.6811,0.68,0.6778,0.677,0.6763,0.6743,0.6743,0.6739,0.673,0.672,0.6718,0.6716,0.6709,0.6707,0.6737,0.6737,0.6737,0,0.688,0.6863,0.6861,0.6848,0.6841,0.6842,0.6828,0.6821,0.6807,0.6802,0.6805,0.6779,0.677,0.675,0.6745,0.674,0.6736,0.674,0.6719,0.6717,0.6715,0.6708,0.6705,0.6737,0.6737,0.6737,0.6737,0,0.6855,0.6843,0.6834,0.6821,0.6813,0.68,0.6795,0.6787,0.6786,0.6781,0.6764,0.6755,0.6741,0.6736,0.6734,0.6716,0.6718,0.672,0.6726,0.6712,0.6706,0.6703,0.6736,0.6736,0.6737,0.6737,0,0,0.6832,0.6819,0.6816,0.681,0.6799,0.679,0.6777,0.6764,0.6758,0.6748,0.6737,0.6719,0.6722,0.6714,0.6711,0.6702,0.6687,0.6705,0.6705,0.6702,0.6666,0.6664,0.6661,0.6687,0.6687,0.6686,0.6667,0,0.6813,0.6791,0.6789,0.6768,0.6758,0.6759,0.6747,0.6739,0.6734,0.6724,0.6719,0.6706,0.6711,0.6706,0.6697,0.6691,0.6679,0.6692,0.6676,0.6675,0.6679,0.6657,0.6655,0.6637,0.6664,0.6664,0.6663,0,0.6787,0.6778,0.6757,0.6748,0.6744,0.6734,0.6722,0.6713,0.6703,0.6701,0.6692,0.6691,0.6677,0.6685,0.6665,0.6674,0.6667,0.6663,0.6662,0.666,0.6668,0.6654,0.6631,0.6629,0.6659,0.666,0.666,0,0.6772,0.6755,0.674,0.6736,0.6725,0.6718,0.6713,0.6704,0.6697,0.6687,0.6683,0.6671,0.6664,0.6655,0.665,0.6656,0.6631,0.6638,0.6628,0.6628,0.6622,0.6623,0.6598,0.6619,0.6619,0.6619,0.6619,0,0.6751,0.6738,0.6734,0.6725,0.6711,0.6708,0.6694,0.6689,0.6682,0.6671,0.6671,0.6661,0.6656,0.6646,0.6642,0.6627,0.6624,0.6621,0.662,0.662,0.6621,0.6616,0.6617,0.6618,0.6618,0.6618,0.6619,0,0.6732,0.6729,0.6713,0.6705,0.6702,0.6692,0.6685,0.6676,0.6672,0.6659,0.6656,0.6649,0.6637,0.6632,0.6616,0.6614,0.6596,0.6596,0.66,0.6599,0.659,0.6591,0.656,0.6556,0.658,0.658,0.658,0,0.6718,0.6708,0.67,0.6693,0.6688,0.6678,0.6671,0.6669,0.6662,0.6651,0.6643,0.6631,0.6621,0.6601,0.6595,0.6583,0.6582,0.6573,0.658,0.6582,0.6582,0.6583,0.6582,0.6571,0.6571,0.657,0.657,0,0.6694,0.6693,0.6684,0.6674,0.6666,0.6658,0.665,0.6645,0.6641,0.6633,0.6621,0.6614,0.6599,0.6586,0.6574,0.6569,0.6569,0.6568,0.6565,0.6566,0.6568,0.6566,0.6595,0.6569,0.6569,0.6569,0.6569,0.6569,0.6677,0.6669,0.6661,0.6651,0.6645,0.6638,0.663,0.6626,0.6616,0.6604,0.6603,0.659,0.6581,0.6566,0.6559,0.6549,0.6551,0.6547,0.6546,0.6545,0.6544,0.657,0.6547,0.6547,0.6547,0.6547,0.6547,0,0.6653,0.6648,0.6639,0.6629,0.6621,0.6623,0.6615,0.6608,0.6597,0.6589,0.658,0.6566,0.6555,0.6548,0.6536,0.6529,0.6529,0.6526,0.6526,0.6525,0.6543,0.6546,0.6527,0.6527,0.6527,0.6527,0.6527,0.6527,0.6639,0.6625,0.6624,0.6607,0.6603,0.6591,0.6586,0.658,0.6574,0.6559,0.655,0.6546,0.6539,0.6527,0.6516,0.6514,0.651,0.6507,0.6505,0.6522,0.6524,0.6526,0.6529,0.6506,0.6506,0.6488,0.6488,0.6488]}]]